| time (UTC) | temp C | wind direction | speed KPH | gust KPH | rain 1hr cm | rain 24hr cm | rain mn cm | humidity % | barometer mb |
| 20260903033822 | 21 | 5 | 4.8 | 9.7 | 0.00 | 0.00 | 0.00 | 40 | 1022.0 |
| 20260903033322 | 21 | 10 | 6.4 | 11.3 | 0.00 | 0.00 | 0.00 | 40 | 1022.0 |
| 20260903032824 | 21 | 359 | 8.0 | 17.7 | 0.00 | 0.00 | 0.00 | 39 | 1022.0 |
| 20260903032322 | 22 | 9 | 6.4 | 11.3 | 0.00 | 0.00 | 0.00 | 39 | 1022.0 |
| 20260903031823 | 22 | 354 | 8.0 | 14.5 | 0.00 | 0.00 | 0.00 | 39 | 1022.0 |
| 20260903031326 | 22 | 355 | 9.7 | 14.5 | 0.00 | 0.00 | 0.00 | 39 | 1022.0 |
| 20260903030823 | 22 | 3 | 9.7 | 17.7 | 0.00 | 0.00 | 0.00 | 38 | 1022.0 |
| 20260903030323 | 22 | 353 | 8.0 | 12.9 | 0.00 | 0.00 | 0.00 | 38 | 1022.0 |
| 20260903025822 | 22 | 26 | 8.0 | 14.5 | 0.00 | 0.00 | 0.00 | 37 | 1022.0 |
| 20260903025322 | 22 | 6 | 14.5 | 27.4 | 0.00 | 0.00 | 0.00 | 37 | 1021.0 |
| 20260903024822 | 22 | 5 | 12.9 | 19.3 | 0.00 | 0.00 | 0.00 | 37 | 1021.0 |
| 20260903024323 | 22 | 359 | 8.0 | 12.9 | 0.00 | 0.00 | 0.00 | 37 | 1021.0 |
| 20260903023822 | 22 | 357 | 8.0 | 12.9 | 0.00 | 0.00 | 0.00 | 36 | 1021.0 |
| 20260903023322 | 21 | 4 | 3.2 | 6.4 | 0.00 | 0.00 | 0.00 | 36 | 1021.0 |
| 20260903022822 | 22 | 358 | 4.8 | 9.7 | 0.00 | 0.00 | 0.00 | 39 | 1021.0 |
| 20260903022324 | 22 | 22 | 1.6 | 3.2 | 0.00 | 0.00 | 0.00 | 39 | 1021.0 |
| 20260903021823 | 23 | 296 | 4.8 | 6.4 | 0.00 | 0.00 | 0.00 | 39 | 1021.0 |
| 20260903021322 | 23 | 261 | 1.6 | 3.2 | 0.00 | 0.00 | 0.00 | 32 | 1021.0 |
| 20260903020823 | 23 | 226 | 1.6 | 4.8 | 0.00 | 0.00 | 0.00 | 31 | 1021.0 |
| 20260903020324 | 23 | 227 | 1.6 | 3.2 | 0.00 | 0.00 | 0.00 | 32 | 1020.0 |
| 20260903015822 | 23 | 202 | 3.2 | 3.2 | 0.00 | 0.00 | 0.00 | 31 | 1020.0 |
| 20260903015322 | 23 | 198 | 3.2 | 4.8 | 0.00 | 0.00 | 0.00 | 30 | 1020.0 |
| 20260903014822 | 24 | 190 | 3.2 | 4.8 | 0.00 | 0.00 | 0.00 | 30 | 1020.0 |
| 20260903014322 | 24 | 169 | 3.2 | 4.8 | 0.00 | 0.00 | 0.00 | 30 | 1020.0 |
| 20260903013823 | 24 | 215 | 3.2 | 3.2 | 0.00 | 0.00 | 0.00 | 30 | 1020.0 |
| 20260903013322 | 24 | 200 | 4.8 | 8.0 | 0.00 | 0.00 | 0.00 | 29 | 1020.0 |
| 20260903012824 | 25 | 169 | 6.4 | 8.0 | 0.00 | 0.00 | 0.00 | 29 | 1020.0 |
| 20260903012323 | 25 | 196 | 4.8 | 6.4 | 0.00 | 0.00 | 0.00 | 29 | 1020.0 |
| 20260903011822 | 25 | 198 | 6.4 | 8.0 | 0.00 | 0.00 | 0.00 | 29 | 1020.0 |
| 20260903011322 | 25 | 169 | 6.4 | 8.0 | 0.00 | 0.00 | 0.00 | 28 | 1020.0 |
| 20260903010822 | 25 | 191 | 4.8 | 6.4 | 0.00 | 0.00 | 0.00 | 28 | 1020.0 |
| 20260903010322 | 25 | 197 | 4.8 | 8.0 | 0.00 | 0.00 | 0.00 | 27 | 1020.0 |
| 20260903005823 | 25 | 167 | 4.8 | 8.0 | 0.00 | 0.00 | 0.00 | 27 | 1020.0 |
| 20260903005323 | 26 | 184 | 6.4 | 9.7 | 0.00 | 0.00 | 0.00 | 27 | 1020.0 |
| 20260903004823 | 26 | 197 | 4.8 | 6.4 | 0.00 | 0.00 | 0.00 | 27 | 1020.0 |
| 20260903004323 | 26 | 200 | 4.8 | 6.4 | 0.00 | 0.00 | 0.00 | 27 | 1020.0 |
| 20260903003823 | 26 | 178 | 6.4 | 8.0 | 0.00 | 0.00 | 0.00 | 27 | 1020.0 |
| 20260903003322 | 26 | 182 | 6.4 | 9.7 | 0.00 | 0.00 | 0.00 | 27 | 1020.0 |
| 20260903002823 | 26 | 165 | 8.0 | 12.9 | 0.00 | 0.00 | 0.00 | 26 | 1020.0 |
| 20260903002323 | 26 | 182 | 6.4 | 11.3 | 0.00 | 0.00 | 0.00 | 27 | 1020.0 |
| 20260903001822 | 27 | 167 | 6.4 | 11.3 | 0.00 | 0.00 | 0.00 | 27 | 1020.0 |
| 20260903001323 | 27 | 173 | 11.3 | 14.5 | 0.00 | 0.00 | 0.00 | 26 | 1020.0 |
| 20260903000823 | 27 | 160 | 11.3 | 14.5 | 0.00 | 0.00 | 0.00 | 26 | 1020.0 |
| 20260903000322 | 27 | 170 | 8.0 | 11.3 | 0.00 | 0.00 | 0.00 | 26 | 1020.0 |
| 20260902235822 | 27 | 151 | 9.7 | 11.3 | 0.00 | 0.00 | 0.00 | 26 | 1020.0 |
| 20260902235323 | 27 | 177 | 9.7 | 14.5 | 0.00 | 0.00 | 0.00 | 25 | 1020.0 |
| 20260902234822 | 27 | 186 | 9.7 | 12.9 | 0.00 | 0.00 | 0.00 | 26 | 1020.0 |
| 20260902234322 | 27 | 177 | 9.7 | 16.1 | 0.00 | 0.00 | 0.00 | 25 | 1020.0 |
| 20260902233826 | 27 | 169 | 11.3 | 14.5 | 0.00 | 0.00 | 0.00 | 25 | 1020.0 |
| 20260902233323 | 27 | 182 | 11.3 | 16.1 | 0.00 | 0.00 | 0.00 | 25 | 1020.0 |
| 20260902232822 | 27 | 161 | 8.0 | 12.9 | 0.00 | 0.00 | 0.00 | 26 | 1020.0 |
| 20260902232323 | 27 | 161 | 8.0 | 11.3 | 0.00 | 0.00 | 0.00 | 26 | 1020.0 |
| 20260902231822 | 27 | 162 | 8.0 | 9.7 | 0.00 | 0.00 | 0.00 | 27 | 1020.0 |
| 20260902231322 | 26 | 194 | 6.4 | 9.7 | 0.00 | 0.00 | 0.00 | 28 | 1020.0 |
| 20260902230823 | 26 | 174 | 4.8 | 9.7 | 0.00 | 0.00 | 0.00 | 28 | 1020.0 |
| 20260902230322 | 27 | 164 | 9.7 | 14.5 | 0.00 | 0.00 | 0.00 | 26 | 1020.0 |
| 20260902225822 | 27 | 162 | 6.4 | 9.7 | 0.00 | 0.00 | 0.00 | 27 | 1020.0 |
| 20260902225322 | 27 | 183 | 9.7 | 12.9 | 0.00 | 0.00 | 0.00 | 26 | 1020.0 |
| 20260902224822 | 27 | 172 | 11.3 | 14.5 | 0.00 | 0.00 | 0.00 | 26 | 1020.0 |
| 20260902224323 | 27 | 181 | 9.7 | 12.9 | 0.00 | 0.00 | 0.00 | 26 | 1020.0 |
| 20260902223822 | 27 | 184 | 8.0 | 11.3 | 0.00 | 0.00 | 0.00 | 25 | 1020.0 |
| 20260902223323 | 28 | 190 | 4.8 | 8.0 | 0.00 | 0.00 | 0.00 | 26 | 1020.0 |
| 20260902222822 | 28 | 170 | 6.4 | 11.3 | 0.00 | 0.00 | 0.00 | 26 | 1020.0 |
| 20260902222323 | 28 | 178 | 6.4 | 14.5 | 0.00 | 0.00 | 0.00 | 26 | 1020.0 |
| 20260902221822 | 28 | 184 | 6.4 | 9.7 | 0.00 | 0.00 | 0.00 | 26 | 1021.0 |
| 20260902221323 | 28 | 218 | 6.4 | 9.7 | 0.00 | 0.00 | 0.00 | 25 | 1021.0 |
| 20260902220822 | 28 | 249 | 6.4 | 11.3 | 0.00 | 0.00 | 0.00 | 23 | 1021.0 |
| 20260902220322 | 28 | 236 | 8.0 | 11.3 | 0.00 | 0.00 | 0.00 | 25 | 1021.0 |
| 20260902215822 | 28 | 235 | 8.0 | 14.5 | 0.00 | 0.00 | 0.00 | 25 | 1021.0 |
| 20260902215322 | 28 | 218 | 8.0 | 12.9 | 0.00 | 0.00 | 0.00 | 25 | 1021.0 |
| 20260902214822 | 28 | 211 | 9.7 | 14.5 | 0.00 | 0.00 | 0.00 | 25 | 1021.0 |
| 20260902214322 | 28 | 145 | 8.0 | 11.3 | 0.00 | 0.00 | 0.00 | 26 | 1021.0 |
| 20260902213822 | 28 | 160 | 9.7 | 14.5 | 0.00 | 0.00 | 0.00 | 26 | 1021.0 |
| 20260902213323 | 28 | 151 | 11.3 | 14.5 | 0.00 | 0.00 | 0.00 | 26 | 1021.0 |
| 20260902212823 | 28 | 159 | 12.9 | 14.5 | 0.00 | 0.00 | 0.00 | 26 | 1021.0 |
| 20260902212324 | 27 | 164 | 14.5 | 16.1 | 0.00 | 0.00 | 0.00 | 26 | 1021.0 |
| 20260902211824 | 27 | 168 | 12.9 | 19.3 | 0.00 | 0.00 | 0.00 | 27 | 1021.0 |
| 20260902211323 | 27 | 176 | 6.4 | 11.3 | 0.00 | 0.00 | 0.00 | 28 | 1021.0 |
| 20260902210822 | 27 | 141 | 8.0 | 12.9 | 0.00 | 0.00 | 0.00 | 28 | 1021.0 |
| 20260902210322 | 27 | 169 | 11.3 | 14.5 | 0.00 | 0.00 | 0.00 | 28 | 1021.0 |
| 20260902205822 | 27 | 162 | 9.7 | 12.9 | 0.00 | 0.00 | 0.00 | 28 | 1021.0 |
| 20260902205323 | 27 | 159 | 8.0 | 11.3 | 0.00 | 0.00 | 0.00 | 28 | 1021.0 |
| 20260902204824 | 27 | 144 | 9.7 | 12.9 | 0.00 | 0.00 | 0.00 | 28 | 1021.0 |
| 20260902204323 | 28 | 143 | 12.9 | 16.1 | 0.00 | 0.00 | 0.00 | 27 | 1022.0 |
| 20260902203822 | 28 | 150 | 11.3 | 14.5 | 0.00 | 0.00 | 0.00 | 27 | 1022.0 |
| 20260902203322 | 27 | 100 | 3.2 | 6.4 | 0.00 | 0.00 | 0.00 | 26 | 1022.0 |
| 20260902202823 | 27 | 141 | 9.7 | 14.5 | 0.00 | 0.00 | 0.00 | 27 | 1022.0 |
| 20260902202322 | 27 | 136 | 9.7 | 16.1 | 0.00 | 0.00 | 0.00 | 28 | 1022.0 |
| 20260902201822 | 27 | 203 | 3.2 | 6.4 | 0.00 | 0.00 | 0.00 | 28 | 1022.0 |
| 20260902201322 | 27 | 156 | 6.4 | 9.7 | 0.00 | 0.00 | 0.00 | 29 | 1022.0 |
| 20260902200823 | 27 | 245 | 3.2 | 4.8 | 0.00 | 0.00 | 0.00 | 28 | 1022.0 |
| 20260902200324 | 27 | 191 | 8.0 | 12.9 | 0.00 | 0.00 | 0.00 | 27 | 1022.0 |
| 20260902195823 | 27 | 221 | 4.8 | 8.0 | 0.00 | 0.00 | 0.00 | 28 | 1022.0 |
| 20260902195323 | 27 | 161 | 4.8 | 8.0 | 0.00 | 0.00 | 0.00 | 28 | 1022.0 |
| 20260902194822 | 27 | 203 | 6.4 | 8.0 | 0.00 | 0.00 | 0.00 | 28 | 1022.0 |
| 20260902194324 | 27 | 236 | 9.7 | 12.9 | 0.00 | 0.00 | 0.00 | 27 | 1022.0 |
| 20260902193824 | 27 | 247 | 6.4 | 14.5 | 0.00 | 0.00 | 0.00 | 27 | 1022.0 |
| 20260902193323 | 27 | 218 | 6.4 | 12.9 | 0.00 | 0.00 | 0.00 | 28 | 1022.0 |
| 20260902192823 | 26 | 169 | 6.4 | 9.7 | 0.00 | 0.00 | 0.00 | 27 | 1022.0 |
| 20260902192323 | 26 | 300 | 4.8 | 6.4 | 0.00 | 0.00 | 0.00 | 27 | 1022.0 |
| 20260902191822 | 27 | 290 | 11.3 | 17.7 | 0.00 | 0.00 | 0.00 | 28 | 1022.0 |
| 20260902191322 | 27 | 239 | 9.7 | 16.1 | 0.00 | 0.00 | 0.00 | 26 | 1023.0 |
| 20260902190823 | 27 | 210 | 6.4 | 11.3 | 0.00 | 0.00 | 0.00 | 27 | 1023.0 |
| 20260902190323 | 27 | 294 | 12.9 | 19.3 | 0.00 | 0.00 | 0.00 | 26 | 1023.0 |
| 20260902185823 | 27 | 286 | 9.7 | 14.5 | 0.00 | 0.00 | 0.00 | 27 | 1023.0 |
| 20260902185322 | 27 | 289 | 9.7 | 16.1 | 0.00 | 0.00 | 0.00 | 28 | 1023.0 |
| 20260902184822 | 26 | 249 | 6.4 | 12.9 | 0.00 | 0.00 | 0.00 | 27 | 1023.0 |
| 20260902184322 | 26 | 242 | 8.0 | 14.5 | 0.00 | 0.00 | 0.00 | 28 | 1023.0 |
| 20260902183822 | 26 | 256 | 6.4 | 11.3 | 0.00 | 0.00 | 0.00 | 28 | 1023.0 |
| 20260902183323 | 26 | 307 | 3.2 | 4.8 | 0.00 | 0.00 | 0.00 | 29 | 1023.0 |
| 20260902182822 | 26 | 198 | 9.7 | 14.5 | 0.00 | 0.00 | 0.00 | 28 | 1023.0 |
| 20260902182322 | 26 | 262 | 8.0 | 14.5 | 0.00 | 0.00 | 0.00 | 28 | 1023.0 |
| 20260902181822 | 26 | 281 | 11.3 | 16.1 | 0.00 | 0.00 | 0.00 | 29 | 1023.0 |
| 20260902181323 | 26 | 273 | 11.3 | 17.7 | 0.00 | 0.00 | 0.00 | 28 | 1023.0 |
| 20260902180822 | 26 | 262 | 11.3 | 16.1 | 0.00 | 0.00 | 0.00 | 28 | 1023.0 |
| 20260902180323 | 26 | 253 | 12.9 | 20.9 | 0.00 | 0.00 | 0.00 | 29 | 1024.0 |
| 20260902175822 | 26 | 285 | 12.9 | 17.7 | 0.00 | 0.00 | 0.00 | 29 | 1024.0 |
| 20260902175323 | 26 | 256 | 11.3 | 20.9 | 0.00 | 0.00 | 0.00 | 29 | 1024.0 |
| 20260902174822 | 26 | 272 | 9.7 | 16.1 | 0.00 | 0.00 | 0.00 | 30 | 1024.0 |
| 20260902174324 | 26 | 300 | 9.7 | 17.7 | 0.00 | 0.00 | 0.00 | 30 | 1024.0 |
| 20260902173822 | 26 | 273 | 8.0 | 11.3 | 0.00 | 0.00 | 0.00 | 30 | 1024.0 |
| 20260902173323 | 25 | 236 | 9.7 | 12.9 | 0.00 | 0.00 | 0.00 | 29 | 1024.0 |
| 20260902172822 | 25 | 295 | 8.0 | 12.9 | 0.00 | 0.00 | 0.00 | 30 | 1024.0 |
| 20260902172323 | 25 | 292 | 6.4 | 11.3 | 0.00 | 0.00 | 0.00 | 31 | 1024.0 |
| 20260902171822 | 25 | 243 | 4.8 | 11.3 | 0.00 | 0.00 | 0.00 | 30 | 1024.0 |
| 20260902171322 | 25 | 159 | 3.2 | 8.0 | 0.00 | 0.00 | 0.00 | 30 | 1024.0 |
| 20260902170822 | 25 | 253 | 6.4 | 9.7 | 0.00 | 0.00 | 0.00 | 30 | 1024.0 |
| 20260902170323 | 25 | 256 | 8.0 | 11.3 | 0.00 | 0.00 | 0.00 | 31 | 1024.0 |
| 20260902165822 | 25 | 261 | 11.3 | 17.7 | 0.00 | 0.00 | 0.00 | 31 | 1024.0 |
| 20260902165323 | 24 | 275 | 8.0 | 14.5 | 0.00 | 0.00 | 0.00 | 31 | 1024.0 |
| 20260902164822 | 24 | 269 | 8.0 | 11.3 | 0.00 | 0.00 | 0.00 | 31 | 1024.0 |
| 20260902163848 | 24 | 300 | 6.4 | 9.7 | 0.00 | 0.00 | 0.00 | 30 | 1024.0 |
| 20260902163323 | 24 | 286 | 12.9 | 24.1 | 0.00 | 0.00 | 0.00 | 31 | 1024.0 |
| 20260902162825 | 24 | 304 | 9.7 | 16.1 | 0.00 | 0.00 | 0.00 | 32 | 1024.0 |
| 20260902162322 | 24 | 291 | 6.4 | 11.3 | 0.00 | 0.00 | 0.00 | 32 | 1024.0 |
| 20260902161823 | 24 | 258 | 8.0 | 12.9 | 0.00 | 0.00 | 0.00 | 31 | 1024.0 |
| 20260902161322 | 24 | 276 | 6.4 | 8.0 | 0.00 | 0.00 | 0.00 | 31 | 1024.0 |
| 20260902160822 | 23 | 301 | 6.4 | 11.3 | 0.00 | 0.00 | 0.00 | 31 | 1024.0 |
| 20260902160324 | 23 | 231 | 9.7 | 11.3 | 0.00 | 0.00 | 0.00 | 31 | 1024.0 |
| 20260902155823 | 23 | 284 | 4.8 | 8.0 | 0.00 | 0.00 | 0.00 | 32 | 1024.0 |
| 20260902155323 | 23 | 296 | 9.7 | 20.9 | 0.00 | 0.00 | 0.00 | 32 | 1024.0 |
| 20260902154822 | 23 | 260 | 6.4 | 8.0 | 0.00 | 0.00 | 0.00 | 31 | 1024.0 |
| 20260902154323 | 23 | 275 | 4.8 | 6.4 | 0.00 | 0.00 | 0.00 | 32 | 1024.0 |
| 20260902153823 | 23 | 16 | 3.2 | 6.4 | 0.00 | 0.00 | 0.00 | 32 | 1024.0 |
| 20260902153323 | 23 | 270 | 3.2 | 6.4 | 0.00 | 0.00 | 0.00 | 33 | 1024.0 |
| 20260902152822 | 23 | 294 | 6.4 | 9.7 | 0.00 | 0.00 | 0.00 | 33 | 1024.0 |
| 20260902152322 | 22 | 287 | 6.4 | 11.3 | 0.00 | 0.00 | 0.00 | 32 | 1024.0 |
| 20260902151822 | 22 | 270 | 8.0 | 12.9 | 0.00 | 0.00 | 0.00 | 33 | 1024.0 |
| 20260902151322 | 22 | 286 | 9.7 | 14.5 | 0.00 | 0.00 | 0.00 | 33 | 1024.0 |
| 20260902150823 | 22 | 276 | 8.0 | 17.7 | 0.00 | 0.00 | 0.00 | 33 | 1024.0 |
| 20260902150323 | 22 | 294 | 8.0 | 11.3 | 0.00 | 0.00 | 0.00 | 33 | 1024.0 |
| 20260902145823 | 22 | 267 | 9.7 | 17.7 | 0.00 | 0.00 | 0.00 | 33 | 1024.0 |
| 20260902145323 | 22 | 310 | 9.7 | 14.5 | 0.00 | 0.00 | 0.00 | 32 | 1024.0 |
| 20260902144822 | 22 | 335 | 6.4 | 9.7 | 0.00 | 0.00 | 0.00 | 34 | 1024.0 |
| 20260902144322 | 22 | 295 | 9.7 | 14.5 | 0.00 | 0.00 | 0.00 | 32 | 1024.0 |
| 20260902143826 | 22 | 299 | 12.9 | 19.3 | 0.00 | 0.00 | 0.00 | 32 | 1024.0 |
| 20260902143328 | 22 | 257 | 4.8 | 8.0 | 0.00 | 0.00 | 0.00 | 35 | 1024.0 |
| 20260902142825 | 22 | 295 | 3.2 | 4.8 | 0.00 | 0.00 | 0.00 | 33 | 1024.0 |
| 20260902142322 | 21 | 355 | 1.6 | 3.2 | 0.00 | 0.00 | 0.00 | 34 | 1024.0 |
| 20260902141822 | 21 | 308 | 4.8 | 8.0 | 0.00 | 0.00 | 0.00 | 34 | 1024.0 |
| 20260902141322 | 21 | 321 | 4.8 | 8.0 | 0.00 | 0.00 | 0.00 | 36 | 1024.0 |
| 20260902140340 | 20 | 311 | 3.2 | 6.4 | 0.00 | 0.00 | 0.00 | 36 | 1024.0 |
| 20260902135822 | 20 | 356 | 4.8 | 8.0 | 0.00 | 0.00 | 0.00 | 35 | 1024.0 |
| 20260902135323 | 20 | 307 | 6.4 | 11.3 | 0.00 | 0.00 | 0.00 | 37 | 1024.0 |
| 20260902134823 | 20 | 349 | 8.0 | 12.9 | 0.00 | 0.00 | 0.00 | 37 | 1024.0 |
| 20260902134322 | 19 | 329 | 9.7 | 12.9 | 0.00 | 0.00 | 0.00 | 38 | 1024.0 |
| 20260902133823 | 19 | 308 | 14.5 | 19.3 | 0.00 | 0.00 | 0.00 | 39 | 1024.0 |
| 20260902133323 | 19 | 308 | 14.5 | 17.7 | 0.00 | 0.00 | 0.00 | 39 | 1024.0 |
| 20260902132822 | 18 | 319 | 11.3 | 16.1 | 0.00 | 0.00 | 0.00 | 40 | 1024.0 |
| 20260902132323 | 18 | 292 | 20.9 | 33.8 | 0.00 | 0.00 | 0.00 | 40 | 1023.0 |
| 20260902131822 | 18 | 282 | 12.9 | 19.3 | 0.00 | 0.00 | 0.00 | 40 | 1023.0 |
| 20260902131323 | 18 | 291 | 14.5 | 20.9 | 0.00 | 0.00 | 0.00 | 41 | 1023.0 |
| 20260902130823 | 18 | 284 | 12.9 | 17.7 | 0.00 | 0.00 | 0.00 | 41 | 1023.0 |
| 20260902130323 | 18 | 284 | 16.1 | 20.9 | 0.00 | 0.00 | 0.00 | 42 | 1023.0 |
| 20260902125823 | 17 | 299 | 14.5 | 20.9 | 0.00 | 0.00 | 0.00 | 42 | 1023.0 |
| 20260902125326 | 17 | 286 | 16.1 | 19.3 | 0.00 | 0.00 | 0.00 | 42 | 1023.0 |
| 20260902124822 | 17 | 286 | 17.7 | 22.5 | 0.00 | 0.00 | 0.00 | 42 | 1023.0 |
| 20260902124323 | 17 | 269 | 12.9 | 17.7 | 0.00 | 0.00 | 0.00 | 41 | 1023.0 |
| 20260902123823 | 17 | 284 | 16.1 | 20.9 | 0.00 | 0.00 | 0.00 | 42 | 1023.0 |
| 20260902123323 | 18 | 295 | 12.9 | 19.3 | 0.00 | 0.00 | 0.00 | 41 | 1023.0 |
| 20260902122822 | 17 | 283 | 12.9 | 22.5 | 0.00 | 0.00 | 0.00 | 42 | 1023.0 |
| 20260902122323 | 17 | 291 | 16.1 | 20.9 | 0.00 | 0.00 | 0.00 | 42 | 1023.0 |
| 20260902121823 | 17 | 289 | 20.9 | 29.0 | 0.00 | 0.00 | 0.00 | 42 | 1023.0 |
| 20260902121322 | 17 | 292 | 14.5 | 19.3 | 0.00 | 0.00 | 0.00 | 43 | 1023.0 |
| 20260902120823 | 17 | 296 | 16.1 | 19.3 | 0.00 | 0.00 | 0.00 | 43 | 1023.0 |
| 20260902120326 | 17 | 300 | 14.5 | 20.9 | 0.00 | 0.00 | 0.00 | 43 | 1023.0 |
| 20260902115823 | 17 | 293 | 11.3 | 16.1 | 0.00 | 0.00 | 0.00 | 43 | 1023.0 |
| 20260902115323 | 17 | 277 | 17.7 | 24.1 | 0.00 | 0.00 | 0.00 | 43 | 1023.0 |
| 20260902114822 | 17 | 303 | 14.5 | 19.3 | 0.00 | 0.00 | 0.00 | 44 | 1023.0 |
| 20260902114325 | 17 | 290 | 19.3 | 25.7 | 0.00 | 0.00 | 0.00 | 44 | 1023.0 |
| 20260902113822 | 17 | 285 | 12.9 | 17.7 | 0.00 | 0.00 | 0.00 | 44 | 1023.0 |
| 20260902113323 | 17 | 308 | 11.3 | 16.1 | 0.00 | 0.00 | 0.00 | 45 | 1023.0 |
| 20260902112823 | 17 | 299 | 14.5 | 19.3 | 0.00 | 0.00 | 0.00 | 46 | 1023.0 |
| 20260902112324 | 18 | 295 | 12.9 | 17.7 | 0.00 | 0.00 | 0.00 | 45 | 1023.0 |
| 20260902111822 | 18 | 294 | 6.4 | 11.3 | 0.00 | 0.00 | 0.00 | 46 | 1023.0 |
| 20260902111322 | 18 | 291 | 12.9 | 16.1 | 0.00 | 0.00 | 0.00 | 46 | 1023.0 |
| 20260902110823 | 18 | 306 | 8.0 | 11.3 | 0.00 | 0.00 | 0.00 | 46 | 1023.0 |
| 20260902110326 | 18 | 305 | 11.3 | 16.1 | 0.00 | 0.00 | 0.00 | 46 | 1023.0 |
| 20260902105823 | 18 | 312 | 8.0 | 12.9 | 0.00 | 0.00 | 0.00 | 44 | 1023.0 |
| 20260902105323 | 18 | 292 | 3.2 | 8.0 | 0.00 | 0.00 | 0.00 | 45 | 1023.0 |
| 20260902104822 | 18 | 314 | 4.8 | 8.0 | 0.00 | 0.00 | 0.00 | 44 | 1023.0 |
| 20260902104322 | 18 | 315 | 4.8 | 11.3 | 0.00 | 0.00 | 0.00 | 44 | 1023.0 |
| 20260902103822 | 18 | 336 | 6.4 | 9.7 | 0.00 | 0.00 | 0.00 | 43 | 1023.0 |
| 20260902103325 | 18 | 327 | 3.2 | 9.7 | 0.00 | 0.00 | 0.00 | 43 | 1023.0 |
| 20260902102823 | 18 | 330 | 6.4 | 11.3 | 0.00 | 0.00 | 0.00 | 44 | 1023.0 |
| 20260902102322 | 19 | 306 | 1.6 | 3.2 | 0.00 | 0.00 | 0.00 | 42 | 1023.0 |
| 20260902101823 | 18 | 324 | 8.0 | 14.5 | 0.00 | 0.00 | 0.00 | 43 | 1023.0 |
| 20260902101323 | 18 | 348 | 6.4 | 9.7 | 0.00 | 0.00 | 0.00 | 44 | 1023.0 |
| 20260902100822 | 18 | 329 | 6.4 | 11.3 | 0.00 | 0.00 | 0.00 | 43 | 1023.0 |
| 20260902100322 | 18 | 310 | 4.8 | 9.7 | 0.00 | 0.00 | 0.00 | 45 | 1023.0 |
| 20260902095825 | 17 | 339 | 4.8 | 11.3 | 0.00 | 0.00 | 0.00 | 50 | 1023.0 |
| 20260902095322 | 18 | 349 | 3.2 | 3.2 | 0.00 | 0.00 | 0.00 | 48 | 1023.0 |
| 20260902094823 | 18 | 318 | 3.2 | 6.4 | 0.00 | 0.00 | 0.00 | 46 | 1023.0 |
| 20260902094323 | 18 | 190 | 4.8 | 6.4 | 0.00 | 0.00 | 0.00 | 45 | 1023.0 |
| 20260902093823 | 17 | 314 | 0.0 | 3.2 | 0.00 | 0.00 | 0.00 | 49 | 1023.0 |
| 20260902093322 | 17 | 289 | 4.8 | 6.4 | 0.00 | 0.00 | 0.00 | 50 | 1023.0 |
| 20260902092823 | 17 | 267 | 1.6 | 6.4 | 0.00 | 0.00 | 0.00 | 49 | 1023.0 |
| 20260902092324 | 16 | 5 | 4.8 | 8.0 | 0.00 | 0.00 | 0.00 | 51 | 1023.0 |
| 20260902091824 | 16 | 355 | 3.2 | 6.4 | 0.00 | 0.00 | 0.00 | 57 | 1023.0 |
| 20260902091323 | 16 | 316 | 3.2 | 4.8 | 0.00 | 0.00 | 0.00 | 61 | 1023.0 |
| 20260902090823 | 15 | 340 | 6.4 | 11.3 | 0.00 | 0.00 | 0.00 | 56 | 1023.0 |
| 20260902090322 | 16 | 9 | 3.2 | 4.8 | 0.00 | 0.00 | 0.00 | 67 | 1023.0 |
| 20260902085822 | 15 | 346 | 1.6 | 3.2 | 0.00 | 0.00 | 0.00 | 65 | 1023.0 |
| 20260902085323 | 15 | 5 | 3.2 | 4.8 | 0.00 | 0.00 | 0.00 | 69 | 1023.0 |
| 20260902084822 | 15 | 5 | 3.2 | 6.4 | 0.00 | 0.00 | 0.00 | 68 | 1023.0 |
| 20260902084324 | 14 | 359 | 3.2 | 8.0 | 0.00 | 0.00 | 0.00 | 69 | 1023.0 |
| 20260902083822 | 14 | 11 | 1.6 | 3.2 | 0.00 | 0.00 | 0.00 | 75 | 1023.0 |
| 20260902083322 | 14 | 323 | 3.2 | 4.8 | 0.00 | 0.00 | 0.00 | 75 | 1023.0 |
| 20260902082822 | 14 | 293 | 3.2 | 4.8 | 0.00 | 0.00 | 0.00 | 75 | 1023.0 |
| 20260902082322 | 14 | 355 | 1.6 | 4.8 | 0.00 | 0.00 | 0.00 | 75 | 1023.0 |
| 20260902081822 | 13 | 351 | 1.6 | 3.2 | 0.00 | 0.00 | 0.00 | 76 | 1023.0 |
| 20260902081323 | 13 | 357 | 3.2 | 4.8 | 0.00 | 0.00 | 0.00 | 75 | 1023.0 |
| 20260902080823 | 13 | 346 | 4.8 | 8.0 | 0.00 | 0.00 | 0.00 | 75 | 1023.0 |
| 20260902080322 | 13 | 19 | 3.2 | 6.4 | 0.00 | 0.00 | 0.00 | 75 | 1023.0 |
| 20260902075824 | 14 | 342 | 3.2 | 6.4 | 0.00 | 0.00 | 0.00 | 74 | 1024.0 |
| 20260902075323 | 13 | 340 | 4.8 | 6.4 | 0.00 | 0.00 | 0.00 | 74 | 1024.0 |
| 20260902074822 | 13 | 342 | 4.8 | 8.0 | 0.00 | 0.00 | 0.00 | 75 | 1024.0 |
| 20260902074322 | 13 | 351 | 3.2 | 6.4 | 0.00 | 0.00 | 0.00 | 76 | 1024.0 |
| 20260902073823 | 13 | 3 | 1.6 | 3.2 | 0.00 | 0.00 | 0.00 | 78 | 1024.0 |
| 20260902073323 | 13 | 18 | 1.6 | 4.8 | 0.00 | 0.00 | 0.00 | 77 | 1024.0 |
| 20260902072823 | 13 | 358 | 6.4 | 8.0 | 0.00 | 0.00 | 0.00 | 75 | 1024.0 |
| 20260902072322 | 13 | 354 | 6.4 | 9.7 | 0.00 | 0.00 | 0.00 | 75 | 1024.0 |
| 20260902071822 | 13 | 344 | 1.6 | 4.8 | 0.00 | 0.00 | 0.00 | 76 | 1024.0 |
| 20260902071322 | 14 | 12 | 3.2 | 6.4 | 0.00 | 0.00 | 0.00 | 74 | 1024.0 |
| 20260902070823 | 14 | 360 | 0.0 | 0.0 | 0.00 | 0.00 | 0.00 | 74 | 1023.0 |
| 20260902070323 | 14 | 360 | 0.0 | 0.0 | 0.00 | 0.00 | 0.00 | 74 | 1024.0 |
| 20260902065822 | 14 | 289 | 1.6 | 3.2 | 0.00 | 0.00 | 0.00 | 74 | 1024.0 |
| 20260902065322 | 14 | 288 | 4.8 | 6.4 | 0.00 | 0.00 | 0.00 | 76 | 1024.0 |
| 20260902064823 | 15 | 132 | 3.2 | 4.8 | 0.00 | 0.00 | 0.00 | 73 | 1024.0 |
| 20260902064322 | 15 | 289 | 1.6 | 3.2 | 0.00 | 0.00 | 0.00 | 71 | 1024.0 |
| 20260902063824 | 15 | 46 | 1.6 | 3.2 | 0.00 | 0.00 | 0.00 | 70 | 1023.0 |
| 20260902063323 | 15 | 21 | 1.6 | 3.2 | 0.00 | 0.00 | 0.00 | 70 | 1023.0 |
| 20260902062823 | 15 | 322 | 0.0 | 1.6 | 0.00 | 0.00 | 0.00 | 70 | 1023.0 |
| 20260902062322 | 16 | 41 | 0.0 | 3.2 | 0.00 | 0.00 | 0.00 | 69 | 1023.0 |
| 20260902061822 | 16 | 21 | 1.6 | 3.2 | 0.00 | 0.00 | 0.00 | 69 | 1023.0 |
| 20260902061324 | 16 | 1 | 3.2 | 9.7 | 0.00 | 0.00 | 0.00 | 69 | 1023.0 |
| 20260902060822 | 16 | 322 | 3.2 | 3.2 | 0.00 | 0.00 | 0.00 | 70 | 1023.0 |
| 20260902060323 | 16 | 319 | 1.6 | 3.2 | 0.00 | 0.00 | 0.00 | 70 | 1023.0 |
| 20260902055823 | 16 | 258 | 1.6 | 3.2 | 0.00 | 0.00 | 0.00 | 69 | 1024.0 |
| 20260902055322 | 16 | 359 | 1.6 | 3.2 | 0.00 | 0.00 | 0.00 | 68 | 1024.0 |
| 20260902054824 | 16 | 348 | 3.2 | 4.8 | 0.00 | 0.00 | 0.00 | 69 | 1024.0 |
| 20260902054323 | 16 | 348 | 1.6 | 3.2 | 0.00 | 0.00 | 0.00 | 69 | 1024.0 |
| 20260902053823 | 16 | 322 | 1.6 | 3.2 | 0.00 | 0.00 | 0.00 | 68 | 1024.0 |
| 20260902053323 | 16 | 295 | 3.2 | 3.2 | 0.00 | 0.00 | 0.00 | 70 | 1024.0 |
| 20260902052823 | 16 | 334 | 1.6 | 3.2 | 0.00 | 0.00 | 0.00 | 72 | 1024.0 |
| 20260902052324 | 16 | 300 | 3.2 | 3.2 | 0.00 | 0.00 | 0.00 | 71 | 1024.0 |
| 20260902051822 | 16 | 287 | 4.8 | 8.0 | 0.00 | 0.00 | 0.00 | 71 | 1024.0 |
| 20260902051324 | 16 | 288 | 6.4 | 9.7 | 0.00 | 0.00 | 0.00 | 68 | 1024.0 |
| 20260902050822 | 17 | 293 | 6.4 | 8.0 | 0.00 | 0.00 | 0.00 | 68 | 1024.0 |
| 20260902050324 | 17 | 290 | 8.0 | 11.3 | 0.00 | 0.00 | 0.00 | 66 | 1024.0 |
| 20260902045822 | 17 | 290 | 0.0 | 3.2 | 0.00 | 0.00 | 0.00 | 63 | 1024.0 |
| 20260902045323 | 18 | 222 | 0.0 | 1.6 | 0.00 | 0.00 | 0.00 | 63 | 1024.0 |
| 20260902044824 | 18 | 201 | 1.6 | 3.2 | 0.00 | 0.00 | 0.00 | 62 | 1024.0 |
| 20260902044322 | 18 | 209 | 0.0 | 3.2 | 0.00 | 0.00 | 0.00 | 62 | 1024.0 |
| 20260902043822 | 18 | 201 | 1.6 | 3.2 | 0.00 | 0.00 | 0.00 | 61 | 1024.0 |
| 20260902043323 | 18 | 182 | 1.6 | 3.2 | 0.00 | 0.00 | 0.00 | 61 | 1024.0 |
| 20260902042822 | 18 | 186 | 3.2 | 4.8 | 0.00 | 0.00 | 0.00 | 61 | 1024.0 |
| 20260902042323 | 18 | 159 | 3.2 | 6.4 | 0.00 | 0.00 | 0.00 | 60 | 1024.0 |
| 20260902041824 | 18 | 165 | 3.2 | 4.8 | 0.00 | 0.00 | 0.00 | 59 | 1024.0 |
| 20260902041324 | 18 | 165 | 1.6 | 3.2 | 0.00 | 0.00 | 0.00 | 59 | 1024.0 |
| 20260902040822 | 19 | 171 | 3.2 | 4.8 | 0.00 | 0.00 | 0.00 | 58 | 1024.0 |
| 20260902040323 | 19 | 170 | 1.6 | 3.2 | 0.00 | 0.00 | 0.00 | 57 | 1024.0 |
| 20260902035823 | 19 | 135 | 3.2 | 6.4 | 0.00 | 0.00 | 0.00 | 57 | 1024.0 |
| 20260902035323 | 19 | 155 | 3.2 | 6.4 | 0.00 | 0.00 | 0.00 | 56 | 1024.0 |
| 20260902034823 | 19 | 144 | 4.8 | 8.0 | 0.00 | 0.00 | 0.00 | 55 | 1024.0 |
| 20260902034322 | 19 | 164 | 6.4 | 9.7 | 0.00 | 0.00 | 0.00 | 55 | 1024.0 |